全球星 M086星 (GLOBALSTAR M086)

导读

GLOBALSTAR M086是隶属于全球星(Globalstar)卫星移动通信系统的低轨通信卫星,由国际财团全球星有限合伙推进项目,美国劳拉公司为主承包商。该卫星于2011年12月28日发射,系统为低轨部署,轨道高度约1414公里,可在南北纬70度范围内提供话音、传真、数据、定位等移动通信业务,作为系统组网卫星补充,支撑全球无缝覆盖的卫星通信服务。

Basic Information
目录编号:
38045
目录名称:
GLOBALSTAR M086
国际标识:
2011-080F
轨道中心:
EARTH
卫星名称:
全球星 M086星
卫星全名:
全球星 M086星 (GLOBALSTAR M086)
卫星状态:
在轨 (已飞行5372 天)
发射日期:
2011-12-28 UTC
国别 :
(GLOB)
星等 :
--
This satellite is enrolled in the Space Conjunction Data Service (SCDS) and the current flight risk assessment level is: No High Risk
Orbit Information
数据来源 国际轨道数据 AOE轨道数据
星历时间 2026-09-12T02:14:47+0800
13小时前
查看轨道信息
2026-09-07T04:00:00+0800
5天前
查看轨道信息
半长轴 7791.648km 7791.648km
偏心率 0.0000628 0.000001
轨道倾角 51.989° 51.989°
近地点辐角 203.871° 162.930°
升交点赤经 64.749° 79.754°
平近点角 169.075° 129.952°
近地点 1413.021km 1413.503km
远地点 1414.001km 1413.519km
周期 114.078分钟 114.078分钟
每日圈数 12.62289 12.62289
Detailed Information
固有亮度:
5
最大亮度:
7.2
平衡模式:
三轴稳定
覆盖范围:
全球
运营商:
全球星公司
运营商所在国:
美国
使用方式:
暂无
Satellite Introduction
全球星星座由48颗卫星加8颗备份星组成。这些卫星分布在8个倾角为52度的圆形轨道平面上,每个轨道平面6颗卫星,另有1 颗备用星。轨道高度约为1414km,传输时延和处理时延小于300ms,整个系统的覆盖区为南北纬70度以内的地区。该卫星已退役。
2D Orbit Map
3D Orbit Map
Orbit Altitude Analysis Chart
Orbit Inclination Analysis Chart
Orbit Comprehensive Analysis Chart
View Comprehensive Chart
Conjunction Data List
Event ID Objects TCA Miss Dist (km) Collision Risk Probability Collision Risk Index (CRI) Action
CDM_260914-140802-268903-804523
2026-09-14T
14:08:59+0000
2.589 km
极远距离
1.293666E-6 低风险 0.37
Miss Distance Evolution Trend with All Objects
Collision Probability Evolution Trend with All Objects